Volver al catálogo

COSMOS 1275 DEB

ActivoPO
NORAD 12690·DEBRIS·🇷🇺 Russia

Lanzado Jun 4, 1981 desde Plesetsk Cosmodrome

Loading…

Próximos Pases (próximas 24 horas)

TLE

ActualizadoSource: Space-Track

Época: Sep 14, 2026, 12:07 UTC

1 12690U 81053AJ  26257.50490781  .00000825  00000-0  67610-3 0  9999
2 12690  82.9482 267.1102 0089280 216.0709 298.0046 13.86583228256507

Sigue COSMOS 1275 DEB en tiempo real con AllMySat

Download on the App Store